,,,PA_Meas_PMT16A,,PR_Meas_QMR101_102,,RH_Meas_QMH101,,SR_Meas_QMS101,,TA_Meas_QMH101,,GenWind,,GenWind,
date,time,status,PA,status,PR,status,RH,status,SR,status,TA,status,DirAvg,status,SpdAvg,
2008-12-29, 00:00:04,VALID,1002.33,VALID,0,VALID,90.181,VALID,0,VALID,24.6964,VALID,352,VALID,0.0714844,
2008-12-29, 00:01:04,VALID,1002.32,VALID,0,VALID,90.1963,VALID,0,VALID,24.7159,VALID,352,VALID,0.249219,
2008-12-29, 00:02:04,VALID,1002.29,VALID,0,VALID,90.1886,VALID,0,VALID,24.7567,VALID,353,VALID,0.0914062,
2008-12-29, 00:03:04,VALID,1002.26,VALID,0,VALID,90.0666,VALID,0,VALID,24.7159,VALID,358,VALID,1.07109,
2008-12-29, 00:04:04,VALID,1002.26,VALID,0,VALID,90.0208,VALID,0,VALID,24.7353,VALID,350,VALID,1.10664,
2008-12-29, 00:05:04,VALID,1002.25,VALID,0,VALID,89.9292,VALID,0,VALID,24.7548,VALID,348,VALID,0.800391,
2008-12-29, 00:06:04,VALID,1002.22,VALID,0,VALID,89.8377,VALID,0,VALID,24.7937,VALID,2,VALID,0.893359,
2008-12-29, 00:07:04,VALID,1002.18,VALID,0,VALID,89.6393,VALID,0,VALID,24.8151,VALID,354,VALID,1.63398,
2008-12-29, 00:08:04,VALID,1002.22,VALID,0,VALID,89.4334,VALID,0,VALID,24.8327,VALID,349,VALID,0.948828,
2008-12-29, 00:09:04,VALID,1002.18,VALID,0,VALID,89.4334,VALID,0,VALID,24.8522,VALID,308,VALID,0.707812,
2008-12-29, 00:10:04,VALID,1002.17,VALID,0,VALID,89.4181,VALID,0,VALID,24.8716,VALID,267,VALID,0.144141,
2008-12-29, 00:11:04,VALID,1002.14,VALID,0,VALID,89.1053,VALID,0,VALID,24.8522,VALID,327,VALID,1.00898,
2008-12-29, 00:12:04,VALID,1002.16,VALID,0,VALID,89.0672,VALID,0,VALID,24.8911,VALID,316,VALID,0.376172,
2008-12-29, 00:13:04,VALID,1002.09,VALID,0,VALID,88.8841,VALID,0,VALID,24.8892,VALID,351,VALID,1.225,
2008-12-29, 00:14:04,VALID,1002.11,VALID,0,VALID,88.64,VALID,0,VALID,24.9495,VALID,353,VALID,0.519922,
2008-12-29, 00:15:04,VALID,1002.08,VALID,0,VALID,88.5637,VALID,0,VALID,24.9904,VALID,352,VALID,0.270703,
2008-12-29, 00:16:04,VALID,1002.08,VALID,0,VALID,88.495,VALID,0,VALID,24.9904,VALID,333,VALID,0.0957031,
2008-12-29, 00:17:04,VALID,1002.05,VALID,0,VALID,88.4721,VALID,0,VALID,24.969,VALID,333,VALID,0.228906,
2008-12-29, 00:18:04,VALID,1002.11,VALID,0,VALID,88.3729,VALID,0,VALID,24.969,VALID,4,VALID,0.25625,
2008-12-29, 00:19:04,VALID,1002.03,VALID,0,VALID,88.2661,VALID,0,VALID,24.969,VALID,350,VALID,0.923828,
2008-12-29, 00:20:04,VALID,1002.01,VALID,0,VALID,88.3653,VALID,0,VALID,24.969,VALID,354,VALID,0.147656,
2008-12-29, 00:21:04,VALID,1002,VALID,0,VALID,88.3424,VALID,0,VALID,24.9904,VALID,316,VALID,0.29375,
2008-12-29, 00:22:04,VALID,1002,VALID,0,VALID,88.228,VALID,0,VALID,24.9495,VALID,284,VALID,1.01484,
2008-12-29, 00:23:04,VALID,1001.96,VALID,0,VALID,88.2967,VALID,0,VALID,24.9709,VALID,307,VALID,0.305469,
2008-12-29, 00:24:04,VALID,1001.93,VALID,0,VALID,88.1441,VALID,0,VALID,24.9495,VALID,283,VALID,0.717578,
2008-12-29, 00:25:04,VALID,1001.95,VALID,0,VALID,88.2509,VALID,0,VALID,24.9495,VALID,283,VALID,0.132031,
2008-12-29, 00:26:04,VALID,1001.96,VALID,0,VALID,88.2509,VALID,0,VALID,24.9495,VALID,2,VALID,0.628516,
2008-12-29, 00:27:04,VALID,1002.37,VALID,0,VALID,88.2433,VALID,0,VALID,24.9495,VALID,288,VALID,0.445313,
2008-12-29, 00:28:04,VALID,1001.92,VALID,0,VALID,88.2967,VALID,0,VALID,24.9495,VALID,311,VALID,0.378125,
2008-12-29, 00:29:04,VALID,1001.93,VALID,0,VALID,88.4416,VALID,0,VALID,24.93,VALID,293,VALID,0.446875,
2008-12-29, 00:30:04,VALID,1001.89,VALID,0,VALID,88.3653,VALID,0,VALID,24.93,VALID,332,VALID,0.455469,
2008-12-29, 00:31:04,VALID,1001.89,VALID,0,VALID,88.4264,VALID,0,VALID,24.9319,VALID,272,VALID,0.957422,
2008-12-29, 00:32:04,VALID,1001.88,VALID,0,VALID,88.167,VALID,0,VALID,24.8911,VALID,284,VALID,1.05234,
2008-12-29, 00:33:04,VALID,1001.87,VALID,0,VALID,88.0602,VALID,0,VALID,24.9106,VALID,326,VALID,0.599219,
2008-12-29, 00:34:04,VALID,1001.86,VALID,0,VALID,87.7855,VALID,0,VALID,24.9514,VALID,279,VALID,0.844141,
2008-12-29, 00:35:04,VALID,1001.85,VALID,0,VALID,87.7779,VALID,0,VALID,24.93,VALID,332,VALID,0.646094,
2008-12-29, 00:36:04,VALID,1001.81,VALID,0,VALID,87.6863,VALID,0,VALID,24.93,VALID,310,VALID,0.471484,
2008-12-29, 00:37:04,VALID,1001.82,VALID,0,VALID,87.5414,VALID,0,VALID,24.93,VALID,305,VALID,0.913281,
2008-12-29, 00:38:04,VALID,1001.82,VALID,0,VALID,87.3354,VALID,0,VALID,24.93,VALID,301,VALID,0.669531,
2008-12-29, 00:39:04,VALID,1001.8,VALID,0,VALID,87.4117,VALID,0,VALID,24.93,VALID,354,VALID,0.821875,
2008-12-29, 00:40:04,VALID,1001.79,VALID,0,VALID,87.0684,VALID,0,VALID,24.9904,VALID,329,VALID,0.739844,
2008-12-29, 00:41:04,VALID,1001.81,VALID,0,VALID,87.2362,VALID,0,VALID,24.9495,VALID,318,VALID,0.0621094,
2008-12-29, 00:42:04,VALID,1001.8,VALID,0,VALID,87.1828,VALID,0,VALID,24.9495,VALID,271,VALID,0.614844,
2008-12-29, 00:43:04,VALID,1001.8,VALID,0,VALID,87.282,VALID,0,VALID,24.93,VALID,258,VALID,0.514453,
2008-12-29, 00:44:04,VALID,1001.76,VALID,0,VALID,87.221,VALID,0,VALID,24.9106,VALID,346,VALID,1.00039,
2008-12-29, 00:45:04,VALID,1001.78,VALID,0,VALID,87.16,VALID,0,VALID,24.9125,VALID,325,VALID,0.573828,
2008-12-29, 00:46:04,VALID,1001.79,VALID,0,VALID,87.3583,VALID,0,VALID,24.9125,VALID,329,VALID,0.150391,
2008-12-29, 00:47:04,VALID,1001.75,VALID,0,VALID,87.2973,VALID,0,VALID,24.8716,VALID,345,VALID,0.373437,
2008-12-29, 00:48:04,VALID,1001.74,VALID,0,VALID,86.954,VALID,0,VALID,24.8735,VALID,325,VALID,1.68438,
2008-12-29, 00:49:04,VALID,1001.73,VALID,0,VALID,86.954,VALID,0,VALID,24.8911,VALID,342,VALID,0.760547,
2008-12-29, 00:50:04,VALID,1001.68,VALID,0,VALID,86.7404,VALID,0,VALID,24.8911,VALID,293,VALID,1.3875,
2008-12-29, 00:51:04,VALID,1001.66,VALID,0,VALID,86.8243,VALID,0,VALID,24.9319,VALID,300,VALID,0.457422,
2008-12-29, 00:52:04,VALID,1001.69,VALID,0,VALID,86.7709,VALID,0,VALID,24.8911,VALID,316,VALID,0.625,
2008-12-29, 00:53:04,VALID,1001.69,VALID,0,VALID,86.8472,VALID,0,VALID,24.8716,VALID,333,VALID,0.605859,
2008-12-29, 00:54:04,VALID,1001.68,VALID,0,VALID,86.8167,VALID,0,VALID,24.893,VALID,313,VALID,0.71875,
2008-12-29, 00:55:04,VALID,1001.66,VALID,0,VALID,86.8777,VALID,0,VALID,24.8716,VALID,321,VALID,0.492188,
2008-12-29, 00:56:04,VALID,1001.65,VALID,0,VALID,86.9387,VALID,0,VALID,24.8716,VALID,305,VALID,0.996484,
2008-12-29, 00:57:04,VALID,1001.66,VALID,0,VALID,86.687,VALID,0,VALID,24.8327,VALID,284,VALID,2.08867,
2008-12-29, 00:58:04,VALID,1001.65,VALID,0,VALID,86.8395,VALID,0,VALID,24.8327,VALID,353,VALID,1.29961,
2008-12-29, 00:59:04,VALID,1001.61,VALID,0,VALID,86.9387,VALID,0,VALID,24.8132,VALID,352,VALID,0.777734,
2008-12-29, 01:00:04,VALID,1001.59,VALID,0,VALID,86.9998,VALID,0,VALID,24.8346,VALID,11,VALID,0.798828,
2008-12-29, 01:01:04,VALID,1001.56,VALID,0,VALID,86.6336,VALID,0,VALID,24.7937,VALID,292,VALID,1.84063,
2008-12-29, 01:02:04,VALID,1001.56,VALID,0,VALID,86.7556,VALID,0,VALID,24.854,VALID,320,VALID,0.546094,
2008-12-29, 01:03:04,VALID,1001.54,VALID,0,VALID,86.8624,VALID,0,VALID,24.8327,VALID,347,VALID,1.16641,
2008-12-29, 01:04:04,VALID,1001.52,VALID,0,VALID,86.9921,VALID,0,VALID,24.7937,VALID,312,VALID,0.287109,
2008-12-29, 01:05:04,VALID,1001.48,VALID,0,VALID,86.9464,VALID,0,VALID,24.7743,VALID,346,VALID,1.10195,
2008-12-29, 01:06:04,VALID,1001.48,VALID,0,VALID,87.1523,VALID,0,VALID,24.7743,VALID,341,VALID,0.838672,
2008-12-29, 01:07:04,VALID,1001.41,VALID,0,VALID,87.1371,VALID,0,VALID,24.7548,VALID,345,VALID,0.214062,
2008-12-29, 01:08:04,VALID,1001.42,VALID,0,VALID,87.0684,VALID,0,VALID,24.7548,VALID,288,VALID,1.20234,
2008-12-29, 01:09:04,VALID,1001.4,VALID,0,VALID,86.9921,VALID,0,VALID,24.7548,VALID,303,VALID,0.639453,
2008-12-29, 01:10:04,VALID,1001.34,VALID,0,VALID,87.0379,VALID,0.100563,VALID,24.7743,VALID,277,VALID,0.819141,
2008-12-29, 01:11:04,VALID,1001.3,VALID,0,VALID,87.0913,VALID,0,VALID,24.7548,VALID,349,VALID,0.9375,
2008-12-29, 01:12:04,VALID,1001.32,VALID,0,VALID,87.2515,VALID,0.100563,VALID,24.7567,VALID,10,VALID,0.536719,
2008-12-29, 01:13:04,VALID,1001.28,VALID,0,VALID,87.1523,VALID,0,VALID,24.7159,VALID,340,VALID,1.15313,
2008-12-29, 01:14:04,VALID,1001.27,VALID,0,VALID,87.3507,VALID,0,VALID,24.6964,VALID,290,VALID,0.553125,
2008-12-29, 01:15:04,VALID,1001.27,VALID,0,VALID,87.1371,VALID,0.100563,VALID,24.7353,VALID,303,VALID,1.20352,
2008-12-29, 01:16:04,VALID,1001.21,VALID,0,VALID,87.0455,VALID,0,VALID,24.7353,VALID,345,VALID,1.24141,
2008-12-29, 01:17:04,VALID,1001.2,VALID,0,VALID,86.8777,VALID,0,VALID,24.8346,VALID,347,VALID,0.841016,
2008-12-29, 01:18:04,VALID,1001.22,VALID,0,VALID,86.9464,VALID,0,VALID,24.8327,VALID,350,VALID,0.380078,
2008-12-29, 01:19:04,VALID,1001.22,VALID,0,VALID,86.8548,VALID,0,VALID,24.8327,VALID,252,VALID,0.645703,
2008-12-29, 01:20:04,VALID,1001.22,VALID,0,VALID,86.6412,VALID,0,VALID,24.8716,VALID,334,VALID,0.766797,
2008-12-29, 01:21:04,VALID,1001.21,VALID,0,VALID,86.5268,VALID,0,VALID,24.8911,VALID,2,VALID,0.408594,
2008-12-29, 01:22:04,VALID,1001.23,VALID,0,VALID,86.5039,VALID,0,VALID,24.93,VALID,321,VALID,0.411719,
2008-12-29, 01:23:04,VALID,1001.26,VALID,0,VALID,86.6717,VALID,0,VALID,24.93,VALID,19,VALID,0.309375,
2008-12-29, 01:24:04,VALID,1001.23,VALID,0,VALID,86.4962,VALID,0,VALID,24.9514,VALID,256,VALID,0.120312,
2008-12-29, 01:25:04,VALID,1001.22,VALID,0,VALID,86.4276,VALID,0,VALID,24.93,VALID,341,VALID,0.430859,
2008-12-29, 01:26:04,VALID,1001.21,VALID,0,VALID,86.214,VALID,0,VALID,24.969,VALID,326,VALID,0.350781,
2008-12-29, 01:27:04,VALID,1001.21,VALID,0,VALID,86.1301,VALID,0,VALID,24.9885,VALID,302,VALID,0.491797,
2008-12-29, 01:28:04,VALID,1001.22,VALID,0,VALID,86.0385,VALID,0,VALID,24.9885,VALID,291,VALID,0.676172,
2008-12-29, 01:29:04,VALID,1001.17,VALID,0,VALID,86.1072,VALID,0,VALID,25.0079,VALID,275,VALID,0.257813,
2008-12-29, 01:30:04,VALID,1001.16,VALID,0,VALID,86.069,VALID,0,VALID,25.0079,VALID,275,VALID,0.544141,
2008-12-29, 01:31:04,VALID,1001.17,VALID,0,VALID,86.0919,VALID,0,VALID,24.9885,VALID,311,VALID,0.148438,
2008-12-29, 01:32:04,VALID,1001.14,VALID,0,VALID,86.0843,VALID,0,VALID,24.9885,VALID,284,VALID,0.362109,
2008-12-29, 01:33:04,VALID,1001.08,VALID,0,VALID,86.0919,VALID,0,VALID,24.9885,VALID,292,VALID,0.308594,
2008-12-29, 01:34:04,VALID,1001.08,VALID,0,VALID,86.0156,VALID,0,VALID,24.9495,VALID,278,VALID,0.94375,
2008-12-29, 01:35:04,VALID,1001.06,VALID,0,VALID,85.9699,VALID,0,VALID,24.9885,VALID,318,VALID,0.992188,
2008-12-29, 01:36:04,VALID,1001.06,VALID,0,VALID,86.1301,VALID,0,VALID,24.969,VALID,348,VALID,0.457812,
2008-12-29, 01:37:04,VALID,1001.03,VALID,0,VALID,86.275,VALID,0,VALID,24.9885,VALID,350,VALID,0.0882813,
2008-12-29, 01:38:04,VALID,1001.02,VALID,0,VALID,86.3284,VALID,0,VALID,24.9904,VALID,271,VALID,0.143359,
2008-12-29, 01:39:04,VALID,1001.01,VALID,0,VALID,86.3894,VALID,0,VALID,24.9495,VALID,276,VALID,0.330469,
2008-12-29, 01:40:04,VALID,1000.99,VALID,0,VALID,86.3132,VALID,0,VALID,24.9904,VALID,300,VALID,0.369922,
2008-12-29, 01:41:04,VALID,1000.98,VALID,0,VALID,86.336,VALID,0,VALID,24.969,VALID,28,VALID,0.477344,
2008-12-29, 01:42:04,VALID,1000.98,VALID,0,VALID,86.3666,VALID,0,VALID,24.9476,VALID,296,VALID,0.145313,
2008-12-29, 01:43:04,VALID,1000.98,VALID,0,VALID,86.2826,VALID,0,VALID,24.9885,VALID,284,VALID,0.264062,
2008-12-29, 01:44:04,VALID,1000.96,VALID,0,VALID,86.3666,VALID,0,VALID,24.9885,VALID,283,VALID,0.244531,
2008-12-29, 01:45:04,VALID,1000.92,VALID,0,VALID,86.2903,VALID,0,VALID,25.0079,VALID,273,VALID,0.230078,
2008-12-29, 01:46:04,VALID,1000.92,VALID,0,VALID,86.2064,VALID,0,VALID,25.0079,VALID,281,VALID,0.670703,
2008-12-29, 01:47:04,VALID,1000.92,VALID,0,VALID,86.3589,VALID,0,VALID,25.0079,VALID,283,VALID,0.571875,
2008-12-29, 01:48:04,VALID,1000.89,VALID,0,VALID,86.2521,VALID,0,VALID,24.9866,VALID,284,VALID,0.737109,
2008-12-29, 01:49:04,VALID,1000.84,VALID,0,VALID,86.3132,VALID,0,VALID,24.9885,VALID,308,VALID,0.191406,
2008-12-29, 01:50:04,VALID,1000.83,VALID,0,VALID,86.2292,VALID,0,VALID,25.0079,VALID,277,VALID,0.6,
2008-12-29, 01:51:04,VALID,1000.84,VALID,0,VALID,86.2903,VALID,0,VALID,24.9885,VALID,288,VALID,0.254687,
2008-12-29, 01:52:04,VALID,1000.78,VALID,0,VALID,86.2979,VALID,0,VALID,24.9885,VALID,313,VALID,0.622656,
2008-12-29, 01:53:04,VALID,1000.75,VALID,0,VALID,86.2369,VALID,0,VALID,24.9885,VALID,283,VALID,0.755859,
2008-12-29, 01:54:04,VALID,1000.75,VALID,0,VALID,86.3437,VALID,0,VALID,24.9885,VALID,283,VALID,0.00703125,
2008-12-29, 01:55:04,VALID,1000.76,VALID,0,VALID,86.3513,VALID,0,VALID,24.9885,VALID,295,VALID,1.23789,
2008-12-29, 01:56:04,VALID,1000.72,VALID,0,VALID,86.4581,VALID,0,VALID,24.9885,VALID,326,VALID,0.747656,
2008-12-29, 01:57:04,VALID,1000.72,VALID,0,VALID,86.3284,VALID,0,VALID,24.9885,VALID,277,VALID,0.960938,
2008-12-29, 01:58:04,VALID,1000.7,VALID,0,VALID,86.1987,VALID,0,VALID,24.9885,VALID,288,VALID,0.335547,
2008-12-29, 01:59:04,VALID,1000.68,VALID,0,VALID,86.1911,VALID,0,VALID,24.9885,VALID,310,VALID,0.641406,
2008-12-29, 02:00:04,VALID,1000.67,VALID,0,VALID,86.2445,VALID,0,VALID,24.9885,VALID,324,VALID,0.391797,
2008-12-29, 02:01:04,VALID,1000.64,VALID,0,VALID,86.3055,VALID,0,VALID,25.0079,VALID,328,VALID,0.257031,
2008-12-29, 02:02:04,VALID,1000.65,VALID,0,VALID,86.1606,VALID,0,VALID,25.0079,VALID,288,VALID,0.408594,
2008-12-29, 02:03:04,VALID,1000.62,VALID,0,VALID,86.2903,VALID,0,VALID,25.0079,VALID,306,VALID,0.227344,
2008-12-29, 02:04:04,VALID,1000.6,VALID,0,VALID,86.3666,VALID,0,VALID,24.9885,VALID,308,VALID,0.290234,
2008-12-29, 02:05:04,VALID,1000.61,VALID,0,VALID,86.3971,VALID,0,VALID,24.969,VALID,317,VALID,0.321094,
2008-12-29, 02:06:04,VALID,1000.58,VALID,0,VALID,86.5191,VALID,0,VALID,24.9495,VALID,316,VALID,0.319531,
2008-12-29, 02:07:04,VALID,1000.61,VALID,0,VALID,86.4581,VALID,0,VALID,24.9495,VALID,287,VALID,1.15586,
2008-12-29, 02:08:04,VALID,1000.6,VALID,0,VALID,86.6259,VALID,0,VALID,24.9495,VALID,321,VALID,0.273047,
2008-12-29, 02:09:04,VALID,1000.57,VALID,0,VALID,86.5878,VALID,0,VALID,24.969,VALID,320,VALID,0.226953,
2008-12-29, 02:10:04,VALID,1000.57,VALID,0,VALID,86.5191,VALID,0,VALID,24.9495,VALID,291,VALID,0.628906,
2008-12-29, 02:11:04,VALID,1000.58,VALID,0,VALID,86.4352,VALID,0,VALID,24.9495,VALID,347,VALID,0.351563,
2008-12-29, 02:12:04,VALID,1000.57,VALID,0,VALID,86.2979,VALID,0,VALID,24.969,VALID,289,VALID,0.889063,
2008-12-29, 02:13:04,VALID,1000.52,VALID,0,VALID,86.2979,VALID,0.100563,VALID,25.0079,VALID,350,VALID,0.739062,
2008-12-29, 02:14:04,VALID,1000.52,VALID,0,VALID,86.2903,VALID,0,VALID,24.9885,VALID,336,VALID,0.484766,
2008-12-29, 02:15:04,VALID,1000.51,VALID,0,VALID,86.1911,VALID,0,VALID,25.0274,VALID,311,VALID,0.486719,
2008-12-29, 02:16:04,VALID,1000.49,VALID,0,VALID,85.8707,VALID,0,VALID,25.0469,VALID,288,VALID,0.694531,
2008-12-29, 02:17:04,VALID,1000.46,VALID,0,VALID,85.7334,VALID,0,VALID,25.0858,VALID,278,VALID,0.661719,
2008-12-29, 02:18:04,VALID,1000.46,VALID,0,VALID,85.7791,VALID,0,VALID,25.1248,VALID,275,VALID,0.192188,
2008-12-29, 02:19:04,VALID,1000.46,VALID,0,VALID,85.7257,VALID,0,VALID,25.1248,VALID,276,VALID,0.420703,
2008-12-29, 02:20:04,VALID,1000.45,VALID,0,VALID,85.7868,VALID,0,VALID,25.1267,VALID,276,VALID,0.195313,
2008-12-29, 02:21:04,VALID,1000.47,VALID,0,VALID,85.8631,VALID,0,VALID,25.0858,VALID,276,VALID,0.172266,
2008-12-29, 02:22:04,VALID,1000.44,VALID,0,VALID,85.947,VALID,0,VALID,25.0858,VALID,276,VALID,0.221875,
2008-12-29, 02:23:04,VALID,1000.43,VALID,0,VALID,85.8859,VALID,0,VALID,25.0858,VALID,328,VALID,0.371875,
2008-12-29, 02:24:04,VALID,1000.43,VALID,0,VALID,85.9088,VALID,0,VALID,25.0663,VALID,269,VALID,0.476563,
2008-12-29, 02:25:04,VALID,1000.4,VALID,0,VALID,85.8478,VALID,0,VALID,25.1072,VALID,284,VALID,0.396875,
2008-12-29, 02:26:04,VALID,1000.4,VALID,0,VALID,85.8096,VALID,0,VALID,25.1267,VALID,283,VALID,0.135937,
2008-12-29, 02:27:04,VALID,1000.4,VALID,0,VALID,85.8554,VALID,0,VALID,25.1267,VALID,358,VALID,0.161719,
2008-12-29, 02:28:04,VALID,1000.38,VALID,0,VALID,85.9317,VALID,0,VALID,25.1267,VALID,270,VALID,0.258594,
2008-12-29, 02:29:04,VALID,1000.38,VALID,0,VALID,85.8325,VALID,0,VALID,25.1072,VALID,283,VALID,0.8,
2008-12-29, 02:30:04,VALID,1000.37,VALID,0,VALID,85.8478,VALID,0,VALID,25.1267,VALID,283,VALID,0.242578,
2008-12-29, 02:31:04,VALID,1000.38,VALID,0,VALID,86.0004,VALID,0,VALID,25.0858,VALID,283,VALID,0.33125,
2008-12-29, 02:32:04,VALID,1000.32,VALID,0,VALID,85.9317,VALID,0,VALID,25.0858,VALID,291,VALID,0.669922,
2008-12-29, 02:33:04,VALID,1000.34,VALID,0,VALID,85.9546,VALID,0,VALID,25.0663,VALID,292,VALID,0.170703,
2008-12-29, 02:34:04,VALID,1000.35,VALID,0,VALID,86.069,VALID,0,VALID,25.0663,VALID,292,VALID,0.0582031,
2008-12-29, 02:35:04,VALID,1000.33,VALID,0,VALID,86.1758,VALID,0,VALID,25.0663,VALID,292,VALID,0.145313,
2008-12-29, 02:36:04,VALID,1000.32,VALID,0,VALID,86.1072,VALID,0,VALID,25.0469,VALID,298,VALID,0.858594,
2008-12-29, 02:37:04,VALID,1000.33,VALID,0,VALID,85.8554,VALID,0,VALID,25.0877,VALID,296,VALID,0.848047,
2008-12-29, 02:38:04,VALID,1000.33,VALID,0,VALID,85.6876,VALID,0,VALID,25.1053,VALID,290,VALID,0.4125,
2008-12-29, 02:39:04,VALID,1000.31,VALID,0,VALID,85.6876,VALID,0,VALID,25.1656,VALID,301,VALID,0.0792969,
2008-12-29, 02:40:04,VALID,1000.28,VALID,0,VALID,85.596,VALID,0,VALID,25.1656,VALID,271,VALID,0.971484,
2008-12-29, 02:41:04,VALID,1000.31,VALID,0,VALID,85.6266,VALID,0,VALID,25.1851,VALID,298,VALID,0.147656,
2008-12-29, 02:42:04,VALID,1000.3,VALID,0,VALID,85.6723,VALID,0,VALID,25.1832,VALID,298,VALID,0.296484,
2008-12-29, 02:43:04,VALID,1000.28,VALID,0,VALID,85.6189,VALID,0,VALID,25.1442,VALID,264,VALID,0.548437,
2008-12-29, 02:44:04,VALID,1000.26,VALID,0,VALID,85.596,VALID,0,VALID,25.1851,VALID,264,VALID,0.163281,
2008-12-29, 02:45:04,VALID,1000.23,VALID,0,VALID,85.7257,VALID,0,VALID,25.1851,VALID,264,VALID,0.0472656,
2008-12-29, 02:46:04,VALID,1000.25,VALID,0,VALID,85.5198,VALID,0,VALID,25.1637,VALID,293,VALID,0.863672,
2008-12-29, 02:47:04,VALID,1000.22,VALID,0,VALID,85.4663,VALID,0,VALID,25.2046,VALID,279,VALID,0.437891,
2008-12-29, 02:48:04,VALID,1000.2,VALID,0,VALID,85.2833,VALID,0,VALID,25.2046,VALID,308,VALID,0.723047,
2008-12-29, 02:49:04,VALID,1000.2,VALID,0,VALID,85.6037,VALID,0,VALID,25.224,VALID,296,VALID,0.4125,
2008-12-29, 02:50:04,VALID,1000.2,VALID,0,VALID,85.5426,VALID,0,VALID,25.1832,VALID,326,VALID,0.353906,
2008-12-29, 02:51:04,VALID,1000.19,VALID,0,VALID,85.3443,VALID,0,VALID,25.1832,VALID,295,VALID,1.2332,
2008-12-29, 02:52:04,VALID,1000.21,VALID,0,VALID,85.2299,VALID,0,VALID,25.224,VALID,286,VALID,0.532812,
2008-12-29, 02:53:04,VALID,1000.19,VALID,0,VALID,85.268,VALID,0,VALID,25.2221,VALID,296,VALID,0.816797,
2008-12-29, 02:54:04,VALID,1000.18,VALID,0,VALID,85.2451,VALID,0,VALID,25.2221,VALID,284,VALID,0.649219,
2008-12-29, 02:55:04,VALID,1000.18,VALID,0,VALID,85.1536,VALID,0,VALID,25.224,VALID,297,VALID,0.494531,
2008-12-29, 02:56:04,VALID,1000.19,VALID,0,VALID,85.2375,VALID,0,VALID,25.2221,VALID,282,VALID,0.667969,
2008-12-29, 02:57:04,VALID,1000.23,VALID,0,VALID,85.3138,VALID,0,VALID,25.2221,VALID,298,VALID,0.325,
2008-12-29, 02:58:04,VALID,1000.19,VALID,0,VALID,85.2222,VALID,0,VALID,25.1832,VALID,292,VALID,1.01133,
2008-12-29, 02:59:04,VALID,1000.21,VALID,0,VALID,85.5426,VALID,0,VALID,25.1851,VALID,285,VALID,0.170312,
2008-12-29, 03:00:04,VALID,1000.19,VALID,0,VALID,85.5045,VALID,0,VALID,25.1637,VALID,284,VALID,0.660547,
2008-12-29, 03:01:04,VALID,1000.2,VALID,0,VALID,85.7028,VALID,0,VALID,25.1442,VALID,288,VALID,0.0703125,
2008-12-29, 03:02:04,VALID,1000.18,VALID,0,VALID,85.6647,VALID,0,VALID,25.1053,VALID,286,VALID,0.43125,
2008-12-29, 03:03:04,VALID,1000.2,VALID,0,VALID,85.8249,VALID,0,VALID,25.1267,VALID,286,VALID,0.160156,
2008-12-29, 03:04:04,VALID,1000.21,VALID,0,VALID,85.8554,VALID,0,VALID,25.1072,VALID,290,VALID,0.866797,
2008-12-29, 03:05:04,VALID,1000.19,VALID,0,VALID,86.0233,VALID,0,VALID,25.0858,VALID,292,VALID,0.273438,
2008-12-29, 03:06:04,VALID,1000.16,VALID,0,VALID,86.0233,VALID,0,VALID,25.0877,VALID,291,VALID,0.578125,
2008-12-29, 03:07:04,VALID,1000.15,VALID,0,VALID,85.9775,VALID,0,VALID,25.0877,VALID,290,VALID,0.5,
2008-12-29, 03:08:04,VALID,1000.13,VALID,0,VALID,86.0767,VALID,0,VALID,25.0877,VALID,289,VALID,0.316406,
2008-12-29, 03:09:04,VALID,1000.12,VALID,0,VALID,86.1301,VALID,0,VALID,25.0663,VALID,288,VALID,0.149609,
2008-12-29, 03:10:04,VALID,1000.14,VALID,0,VALID,86.2521,VALID,0,VALID,25.0682,VALID,288,VALID,0.167969,
2008-12-29, 03:11:04,VALID,1000.11,VALID,0,VALID,86.4581,VALID,0,VALID,25.0469,VALID,288,VALID,0,
2008-12-29, 03:12:04,VALID,1000.12,VALID,0,VALID,86.687,VALID,0,VALID,25.0079,VALID,281,VALID,0.117578,
2008-12-29, 03:13:04,VALID,1000.12,VALID,0,VALID,86.7709,VALID,0,VALID,25.0098,VALID,281,VALID,0,
2008-12-29, 03:14:04,VALID,1000.11,VALID,0,VALID,86.9158,VALID,0,VALID,24.9904,VALID,280,VALID,0.209766,
2008-12-29, 03:15:04,VALID,1000.08,VALID,0,VALID,87.0455,VALID,0,VALID,24.93,VALID,280,VALID,0.403516,
2008-12-29, 03:16:04,VALID,1000.09,VALID,0,VALID,87.1142,VALID,0,VALID,24.9319,VALID,279,VALID,0.538672,
2008-12-29, 03:17:04,VALID,1000.08,VALID,0,VALID,87.0455,VALID,0,VALID,24.9125,VALID,286,VALID,0.629297,
2008-12-29, 03:18:04,VALID,1000.07,VALID,0,VALID,87.2668,VALID,0,VALID,24.9125,VALID,286,VALID,0,
2008-12-29, 03:19:04,VALID,1000.08,VALID,0,VALID,87.4117,VALID,0,VALID,24.8716,VALID,286,VALID,0,
2008-12-29, 03:20:04,VALID,1000.09,VALID,0,VALID,87.4193,VALID,0,VALID,24.8949,VALID,291,VALID,0.499219,
2008-12-29, 03:21:04,VALID,1000.06,VALID,0,VALID,87.4346,VALID,0,VALID,24.8522,VALID,357,VALID,0.384375,
2008-12-29, 03:22:04,VALID,1000.08,VALID,0,VALID,87.5261,VALID,0,VALID,24.8735,VALID,357,VALID,0.147656,
2008-12-29, 03:23:04,VALID,1000.08,VALID,0,VALID,87.4575,VALID,0,VALID,24.8522,VALID,342,VALID,0.198828,
2008-12-29, 03:24:04,VALID,1000.11,VALID,0,VALID,87.5109,VALID,0,VALID,24.8735,VALID,342,VALID,0,
2008-12-29, 03:25:04,VALID,1000.11,VALID,0,VALID,87.4575,VALID,0,VALID,24.893,VALID,342,VALID,0.00117188,
2008-12-29, 03:26:04,VALID,1000.1,VALID,0,VALID,87.427,VALID,0,VALID,24.8911,VALID,356,VALID,0.822266,
2008-12-29, 03:27:04,VALID,1000.14,VALID,0,VALID,87.221,VALID,0,VALID,24.9495,VALID,342,VALID,0.212109,
2008-12-29, 03:28:04,VALID,1000.13,VALID,0,VALID,87.1218,VALID,0,VALID,25.0079,VALID,15,VALID,0.232422,
2008-12-29, 03:29:04,VALID,1000.17,VALID,0,VALID,87.0684,VALID,0,VALID,25.0079,VALID,14,VALID,0,
2008-12-29, 03:30:04,VALID,1000.18,VALID,0,VALID,86.9998,VALID,0,VALID,25.0079,VALID,14,VALID,0.253125,
2008-12-29, 03:31:04,VALID,1000.18,VALID,0,VALID,86.9921,VALID,0,VALID,25.0274,VALID,14,VALID,0.135547,
2008-12-29, 03:32:04,VALID,1000.21,VALID,0,VALID,87.0303,VALID,0,VALID,25.0274,VALID,278,VALID,0.612891,
2008-12-29, 03:33:04,VALID,1000.21,VALID,0,VALID,86.8701,VALID,0,VALID,25.0274,VALID,280,VALID,0.615234,
2008-12-29, 03:34:04,VALID,1000.21,VALID,0,VALID,86.9921,VALID,0,VALID,25.0469,VALID,280,VALID,0.123438,
2008-12-29, 03:35:04,VALID,1000.22,VALID,0,VALID,86.9464,VALID,0,VALID,25.0663,VALID,280,VALID,0,
2008-12-29, 03:36:04,VALID,1000.2,VALID,0,VALID,86.9464,VALID,0,VALID,25.0682,VALID,280,VALID,0.157422,
2008-12-29, 03:37:04,VALID,1000.22,VALID,0,VALID,86.9692,VALID,0,VALID,25.0469,VALID,280,VALID,0.000390625,
2008-12-29, 03:38:04,VALID,1000.2,VALID,0,VALID,87.0074,VALID,0,VALID,25.0469,VALID,280,VALID,0.120703,
2008-12-29, 03:39:04,VALID,1000.23,VALID,0,VALID,86.8319,VALID,0,VALID,25.0663,VALID,281,VALID,1.01211,
2008-12-29, 03:40:04,VALID,1000.22,VALID,0,VALID,86.7099,VALID,0,VALID,25.1053,VALID,284,VALID,0.457422,
2008-12-29, 03:41:04,VALID,1000.23,VALID,0,VALID,86.481,VALID,0,VALID,25.1442,VALID,296,VALID,0.778906,
2008-12-29, 03:42:04,VALID,1000.26,VALID,0,VALID,86.3971,VALID,0,VALID,25.1851,VALID,297,VALID,0.0804688,
2008-12-29, 03:43:04,VALID,1000.22,VALID,0,VALID,86.3284,VALID,0,VALID,25.2046,VALID,285,VALID,0.781641,
2008-12-29, 03:44:04,VALID,1000.24,VALID,0,VALID,86.1911,VALID,0,VALID,25.224,VALID,291,VALID,0.978516,
2008-12-29, 03:45:04,VALID,1000.23,VALID,0,VALID,86.3284,VALID,0,VALID,25.2027,VALID,285,VALID,0.474219,